Showing default

HEAD-1, 43011

Orbit data source: Space-Track

HEAD-1, 43011 is a payload satellite owned by HEAD (CN) in SSO that was launched on Tue, 14 Nov 2017 UTC via a CHANG ZHENG 4C launch vehicle from the Taiyaun Space Center, China (TSC). Payloads include a variety of satellites, spacecraft, and rockets equipped with specific instruments for various scientific and technological missions. These include communications satellites like Starlink; space stations such as the ISS; scientific satellites like the Hubble; Earth observation satellites from companies like Planet Labs, Umbra, and HawkEye 360; GPS; miniature CubeSats for education and research; and military/defense satellites.

Loading next visibility...
HEAD-1 details
Identifier
43011, 2017-072B
Orbit
SSO
Last TLE update9 hours ago
Origin
Flag of CNHEAD (CN / PRC)
ManufacturerLIZH/SAST
MissionOperational Commercial Communications
Bus & MotorHEAD-1, Unknown motor
Mass45 kg wet, 45 kg dry
Launch date (UTC)
2017-11-14 (7 years ago)
Launch vehicle
CHANG ZHENG 4C
Launch site
Taiyaun Space Center, China (TSC)
Object type
Payload
Rocket body
Debris
Shape & HBRBox + 2 Pan, 2 m
Radar Cross Section0.223 m², Medium (>0.1 m² and < 1m²)

Expand to show TLE details & history

TLE from 9 hours ago
0 HEAD-1
1 43011U 17072B   24361.11346593  .00001113  00000-0  46598-3 0  9995
2 43011  98.9573 354.1342 0009084 276.4053  83.6092 14.28142385370536
Epoch: 2024-12-26T02:43Z
Definitive object data (Epoch: 2024-12-26T02:43:23.456Z)
Latitude-0.00008°
Longitude-141.81104°
Altitude800.144 km
Speed7.454 km/s
True Right ascension23h 36m 32s
True Declination0° 00' 00"
Sunlit
Object was in daylight at TLE epoch
Visualization TLE readout
Latitude34.19702°
Longitude44.69298°
Altitude806.615 km
Speed7.451 km/s
Apparent Right ascension14h 56m 07s
Apparent Declination-1° 52' 16"
Sunlit
Object is in daylight
Visualization observer readout
Local Sidereal Time11:09:59
Azimuth114.428° SE
Elevation23.69°
Doppler factor1
Orbital elements
Apogee altitude801.623 km
Perigee altitude788.59 km
Semi-major axis7,173.244 km
Eccentricity0.0009084
Inclination98.9573°
RAAN354.1342°
Arg. of periapsis276.4053°
True anomaly83.71266°
Mean anomaly83.6092°
Eccentric anomaly83.66093°
Mean motion3.57248 °/min
BSTAR0.00046598
Orbital period100.77 mins
Loading maneuver chart data...
Loading historical data...
Loading historical data...
Loading historical data...
Loading historical data...
Loading historical data...
Loading historical data...
Loading historical data...
Other satellites on launch #72 in the year 2017 (2017-11-14 UTC)

HEAD-1 Visibility forecast

Observer location: undefined°, undefined

Span
Click to sort rows by Start time (UTC) header in descending order
Start Az.
Max El. time (UTC)
Max El. Az.
Max El.
End time (UTC)
End Az.
8 mins2024-12-26 13:23:35.355Z351.093° N2024-12-26 13:27:35.355Z279.297° WNW31.532°2024-12-26 13:31:35.355Z226.09° WSW
8 mins2024-12-26 23:02:35.355Z127.718° SE2024-12-26 23:05:35.355Z80.807° E31.39°2024-12-26 23:10:35.355Z3.336° NNE
7 mins2024-12-27 00:42:35.355Z218.98° SW2024-12-27 00:45:35.355Z262.743° W23.155°2024-12-27 00:49:35.355Z317.037° NNW
|